Location: Waning Moon II Observatory
(30.3730°N, 89.7620°W)
Time: 18:39:49
(UTC-06:00)

Daily predictions for brighter satellites

Satellite Brightness Start Highest point End
(mag) Time Altitude Azimuth Time Altitude Azimuth Time Altitude Azimuth
CZ-3C R/B 3.3 18:00:33 10° WSW 18:14:42 31° S 18:18:45 10° SE
Cosmos 1992 Rocket 4.4 18:10:57 10° N 18:15:53 41° ENE 18:20:46 10° SE
Okean 2 Rocket 3.1 18:13:22 10° S 18:17:50 82° E 18:22:18 10° N
COSMO-SKYMED 1 3.6 18:18:42 10° N 18:22:53 50° WNW 18:27:04 10° SSW
ERBS 3.2 18:20:20 10° NNW 18:23:27 31° NE 18:26:33 10° ESE
ATLAS 2A CENTAUR R/B 1.5 18:22:01 10° WSW 18:23:57 41° S 18:28:46 10° ESE
FREGAT/IRIS 3.6 18:24:11 10° SE 18:26:52 28° ENE 18:29:33 10° NNE
Cosmos 1697 Rocket 4.0 18:24:26 10° NW 18:29:47 45° WSW 18:35:05 10° S
Cosmos 2360 Rocket 3.9 18:29:46 10° NE 18:31:37 11° ENE 18:32:44 11° ENE
Cosmos 1745 Rocket 4.2 18:25:17 10° S 18:31:37 81° W 18:37:57 10° N
METEOR-M 4.2 18:27:08 10° SSE 18:32:22 60° ENE 18:37:37 10° N
Cosmos 1980 Rocket 2.4 18:27:13 10° NNW 18:32:55 78° WSW 18:38:35 10° SSE
Cosmos 1190 Rocket 4.0 18:30:24 10° SSW 18:35:34 87° ESE 18:40:48 10° NNE
Cosmos 2151 Rocket 3.7 18:31:40 10° S 18:36:01 56° E 18:40:26 10° NNE
NOAA 12 4.1 18:31:06 10° SSE 18:36:21 68° ENE 18:41:37 10° N
ALOS 2.9 18:35:39 10° SE 18:39:48 33° ENE 18:43:59 10° N
SJ-6B 3.0 18:36:50 10° SSE 18:40:47 51° ENE 18:44:41 10° N
Meteor 1-18 Rocket 4.2 18:35:59 10° N 18:41:31 66° E 18:47:04 10° SSE
TSX-5 3.7 18:38:54 10° S 18:42:07 41° ESE 18:44:47 12° NE
Cosmos 1140 Rocket 4.2 18:38:30 10° SSE 18:42:56 30° E 18:47:24 10° NE
SL-8 R/B 4.1 18:39:02 10° NW 18:43:39 44° NE 18:47:04 17° ESE
GEOS 3 Rocket 4.4 18:40:18 10° NNE 18:45:24 54° NW 18:50:33 10° SW
Spot 2 Rocket 4.2 18:43:14 10° SE 18:47:37 31° ENE 18:52:02 10° N
Okean 1 Rocket 4.0 18:44:52 10° SE 18:48:32 25° E 18:52:13 10° NE
Gbstr 26 Del rocket 3.3 18:45:21 10° SSW 18:48:58 36° SE 18:50:42 23° E
Cosmos 2292 Rocket 3.7 18:46:24 10° S 18:50:33 68° E 18:56:12 10° N
PSLV R/B 3.0 18:52:22 10° WNW 18:55:31 76° NNE 18:56:51 31° ESE
Cosmos 1461 4.1 18:53:15 10° N 18:56:28 22° ENE 18:56:31 22° ENE
Cosmos 1633 2.6 18:56:44 10° S 19:00:18 53° E 19:03:54 10° NNE
ASTRO E2 2.6 18:56:36 10° W 19:00:39 90° ENE 19:02:28 31° E
HJ-1C 3.4 18:58:44 10° SSE 19:02:03 57° ENE 19:05:22 10° N
SL-16 R/B 2.2 18:57:37 10° NNW 19:03:15 63° ENE 19:08:50 10° SSE
Cosmos 1536 4.4 19:00:06 10° SSE 19:01:39 19° SE 19:01:39 19° SE
ATLAS CENTAUR R/B 3.4 18:58:51 10° S 19:04:13 23° SE 19:04:45 22° SE
Cosmos 1954 Rocket 3.9 18:59:14 10° S 19:04:21 74° ESE 19:09:33 10° NNE
H-2A R/B (2) 1.7 19:05:16 10° SW 19:08:10 35° SSE 19:08:38 32° SE
Meteor 1-13 Rocket 4.4 19:05:59 10° N 19:11:19 47° E 19:16:44 10° SSE
CENTAUR R/B 3.5 19:03:23 10° NW 19:11:26 69° WSW 19:19:44 10° SSE
Cosmos 44 Rocket 3.7 19:09:43 10° NW 19:14:21 60° WSW 19:18:55 10° SSE
Okean 1 3.5 19:12:05 10° N 19:16:09 75° W 19:20:11 10° S
Cosmos 1340 2.8 19:14:53 10° N 19:18:12 51° NE 19:18:12 51° NE
Cosmos 2322 Rocket 2.2 19:17:00 10° NNW 19:22:37 84° WSW 19:28:14 10° SSE
SL-19 R/B 4.2 19:17:06 10° SSE 19:22:38 78° ENE 19:28:25 10° NNW
GOES 2 Rocket 3.7 19:18:39 10° W 19:23:03 45° SSW 19:24:15 35° SSE
Tiangong 2 3.7 19:22:18 10° NNW 19:22:55 12° N 19:22:55 12° N
Resurs 01 Rocket 1.5 19:22:15 10° SSE 19:26:40 90° ESE 19:31:06 10° NNW
NOSS 8 (E) 4.4 19:24:07 10° SSW 19:27:34 85° SW 19:27:34 85° SW
Cosmos 1536 Rocket 4.0 19:26:31 10° NNW 19:30:56 62° W 19:35:20 10° S
H-2A R/B 2.6 19:33:51 80° WNW 19:33:51 80° WNW 19:37:29 10° NNW
Helios 1B rocket 2.3 19:33:19 51° NNE 19:34:19 87° ESE 19:38:27 10° SSW
Cosmos 2327 Rocket 4.4 19:32:23 10° S 19:38:23 58° E 19:44:31 10° NNE
Meteor 1-11 Rocket 4.0 19:33:20 10° SSW 19:39:00 71° W 19:44:51 10° N
FENGYUN 3A 4.3 19:35:19 10° S 19:40:35 56° W 19:45:55 10° NNW
Cosmos 2181 Rocket 4.0 19:34:45 10° N 19:41:01 83° W 19:47:21 10° S
Meteor 2-4 Rocket 4.1 19:36:05 10° N 19:40:14 44° NE 19:40:14 44° NE
Cosmos 1741 Rocket 3.8 19:36:23 10° S 19:41:35 73° ESE 19:42:08 66° ENE
DNEPR-1 R/B 3.4 19:38:28 10° NNW 19:42:35 80° W 19:42:35 80° W
Cosmos 44 4.0 19:38:41 10° NW 19:42:50 45° WSW 19:44:51 26° S
H-2A ROCKET BODY 4.2 19:33:05 10° W 19:44:42 25° SW 19:48:32 12° S
BREEZE-M DEB (TANK) 4.2 19:41:03 10° WSW 19:44:56 28° NW 19:45:04 28° NW
DELTA 2 R/B (1) 4.4 19:41:22 10° NW 19:46:32 36° N 19:46:45 36° NNE
Centaur D-1A AC-35 4.1 19:28:09 10° W 19:46:34 42° SSW 19:49:07 28° SSE
SL-08 ROCKET BODY 4.4 19:45:46 10° S 19:51:53 86° W 19:58:06 10° N
Resurs 1-3 4.4 19:50:41 14° S 19:54:13 49° W 19:58:28 10° NNW
Cosmos 2184 Rocket 3.9 19:49:23 10° S 19:55:45 87° E 20:02:04 10° N
Cosmos 2074 Rocket 3.9 19:51:04 10° S 19:57:18 87° W 20:03:35 10° N
Cosmos 2219 3.2 19:57:02 10° SSW 20:02:18 76° SSW 20:02:18 76° SSW
Cosmos 2360 Rocket 2.8 20:10:31 10° NNW 20:14:35 49° NNW 20:14:35 49° NNW
